Content
SEND FEEDBACK

Daily
Averages
Monthly
Summary
United States of America

SULPHUR, LOUISIANA


Home > North America > United States > Louisiana
Elevation: 10 feet     Latitude: 30 13N     Longitude: 093 23W

WEATHER
 
SELECT A DAY
Number of Records: 187,595;   Date Range: 11/22/06 - 7/26/14
 
SHARE

PRINT THIS DATA

[ ← Previous Day ]
WEATHER ALMANAC - SEPTEMBER 18, 2013
[ Next Day → ]
[ °C ]   °F
Weather ElementAverageHighLow
Temperature83.2 °F95 °F (3:55 pm)74.1 °F (5:15 am)
Dewpoint73.3 °F77.4 °F (9:35 am)65.8 °F (5:15 pm)
Humidity75.2 %97 % (12:35 am)40 % (3:55 pm)
Barometer29.98 in30.03 in (9:55 am)29.93 in (4:15 pm)
Wind Speed6 mph12.7 mph (3:55 pm)
Wind Gust20.7 mph (3:55 pm)
Weather ElementAverage
Visibility9.2 mi
Wind DirectionENE (77 °)

Weather ElementTotal
Precipitation0.05 in
Cooling Degree Days19.6 (Base 65)
Growing Degree Days34.6 (Base 50)
Averaged from 71 records on September 18, 2013
WEATHER CONDITIONS BREAKOUT
WIND DIRECTION BREAKOUT
WEATHER BY HOUR - SEPTEMBER 18, 2013
[ °C ]   °F
Local TimeTemperatureDewpointHumidityBarometerVisibilityWind DirectionWind SpeedGust SpeedPrecipitationEventsConditions
12:35 AM78.1 °F77.2 °F97 %30.00 in5.0 miCalmClear
12:55 AM78.1 °F77.2 °F97 %30.01 in7.0 miCalmClear
1:15 AM77.9 °F76.8 °F96 %30.01 in10.0 miEast (90°)3.5 mphScattered Clouds
1:35 AM78.1 °F76.1 °F94 %30.00 in10.0 miCalmScattered Clouds
1:55 AM78.1 °F75.2 °F91 %30.00 in10.0 miENE (60°)3.5 mphClear
2:15 AM77.0 °F75.0 °F94 %30.00 in10.0 miCalmScattered Clouds
2:35 AM76.8 °F74.7 °F93 %30.00 in10.0 miCalmClear
2:55 AM75.2 °F73.8 °F95 %29.99 in7.0 miCalmScattered Clouds
3:15 AM76.3 °F75.2 °F96 %29.99 in7.0 miCalmScattered Clouds
3:35 AM75.2 °F73.8 °F95 %29.99 in7.0 miCalmMostly Cloudy
3:55 AM74.7 °F73.6 °F96 %29.99 in7.0 miCalmScattered Clouds
4:15 AM74.7 °F73.4 °F96 %29.98 in10.0 miCalmClear
4:35 AM74.3 °F73.0 °F96 %29.98 in7.0 miCalmClear
4:55 AM74.5 °F72.9 °F95 %29.98 in7.0 miCalmClear
5:15 AM74.1 °F72.9 °F96 %29.98 in7.0 miNorth (360°)3.5 mphClear
5:35 AM75.6 °F74.7 °F97 %29.98 in7.0 miNNE (20°)4.6 mphClear
5:55 AM76.5 °F74.7 °F94 %29.98 in10.0 miNorth (10°)3.5 mphClear
6:15 AM75.6 °F73.9 °F95 %29.99 in7.0 miCalmClear
6:35 AM74.7 °F73.6 °F96 %30.00 in5.0 miCalmClear
6:55 AM75.6 °F74.5 °F96 %30.00 in7.0 miCalmClear
7:15 AM75.6 °F74.3 °F96 %30.00 in5.0 miNNE (20°)3.5 mphClear
7:35 AM76.1 °F74.5 °F95 %30.01 in5.0 miNNE (30°)3.5 mphClear
7:55 AM77.0 °F75.2 °F94 %30.01 in7.0 miNE (50°)3.5 mphClear
8:15 AM78.8 °F75.4 °F89 %30.01 in10.0 miNE (50°)4.6 mphClear
8:35 AM80.1 °F75.7 °F87 %30.02 in10.0 miENE (60°)6.9 mphClear
8:55 AM80.4 °F76.1 °F87 %30.02 in10.0 miENE (70°)6.9 mphClear
9:15 AM81.5 °F76.5 °F85 %30.02 in10.0 miENE (70°)9.2 mphClear
9:35 AM83.8 °F77.4 °F81 %30.02 in10.0 miEast (80°)8.1 mphClear
9:55 AM85.3 °F77.0 °F76 %30.03 in10.0 miEast (80°)9.2 mphClear
10:15 AM86.0 °F76.1 °F72 %30.03 in10.0 miENE (70°)9.2 mphClear
10:35 AM87.3 °F75.4 °F68 %30.03 in10.0 miEast (90°)9.2 mphScattered Clouds
10:55 AM88.0 °F74.7 °F65 %30.03 in10.0 miEast (90°)10.4 mphClear
11:15 AM89.4 °F73.9 °F60 %30.03 in10.0 miEast (100°)11.5 mphScattered Clouds
11:35 AM89.4 °F73.6 °F59 %30.03 in10.0 miEast (100°)11.5 mph18.4 mphScattered Clouds
11:55 AM91.2 °F72.7 °F54 %30.02 in10.0 miEast (100°)11.5 mphClear
12:15 PM91.2 °F72.1 °F53 %30.02 in10.0 miESE (110°)10.4 mphClear
12:35 PM91.9 °F70.7 °F50 %30.01 in10.0 miESE (120°)11.5 mph17.3 mphScattered Clouds
12:55 PM92.7 °F70.5 °F48 %30.01 in10.0 miESE (110°)9.2 mphClear
1:15 PM93.2 °F70.5 °F47 %30.00 in10.0 miEast (90°)8.1 mphClear
1:35 PM93.7 °F69.6 °F45 %29.98 in10.0 miESE (110°)9.2 mph17.3 mphClear
1:55 PM93.4 °F68.5 °F44 %29.98 in10.0 miESE (120°)11.5 mph18.4 mphScattered Clouds
2:15 PM92.7 °F68.0 °F44 %29.97 in10.0 miSE (130°)9.2 mph16.1 mphScattered Clouds
2:35 PM93.7 °F68.4 °F43 %29.96 in10.0 miEast (100°)10.4 mphScattered Clouds
2:55 PM94.6 °F69.1 °F43 %29.96 in10.0 miESE (120°)6.9 mph17.3 mphClear
3:15 PM93.7 °F68.7 °F44 %29.95 in10.0 miENE (70°)8.1 mphMostly Cloudy
3:35 PM93.0 °F68.7 °F45 %29.94 in10.0 miEast (90°)9.2 mphScattered Clouds
3:55 PM95.0 °F67.3 °F40 %29.94 in10.0 miESE (110°)12.7 mph20.7 mphScattered Clouds
4:15 PM94.5 °F67.6 °F41 %29.93 in10.0 miSE (130°)8.1 mph19.6 mphMostly Cloudy
4:35 PM94.8 °F67.3 °F40 %29.94 in10.0 miESE (110°)8.1 mphScattered Clouds
4:55 PM92.7 °F67.6 °F44 %29.94 in10.0 miSE (140°)6.9 mphClear
5:15 PM91.4 °F65.8 °F43 %29.93 in10.0 miESE (120°)8.1 mphClear
5:35 PM89.2 °F73.4 °F59 %29.93 in10.0 miSSE (160°)10.4 mphClear
5:55 PM88.0 °F72.5 °F60 %29.93 in10.0 miSSE (160°)10.4 mphClear
6:15 PM88.3 °F73.4 °F61 %29.93 in10.0 miSSE (160°)10.4 mphClear
6:35 PM88.2 °F74.1 °F63 %29.93 in10.0 miSSE (160°)12.7 mphClear
6:55 PM86.7 °F75.2 °F68 %29.93 in10.0 miSSE (150°)8.1 mphClear
7:15 PM84.9 °F75.7 °F74 %29.94 in10.0 miEast (90°)4.6 mph0.01 inRainHeavy Rain
7:35 PM80.8 °F73.2 °F78 %29.94 in10.0 miEast (90°)3.5 mph0.02 inScattered Clouds
7:55 PM78.8 °F75.0 °F88 %29.95 in10.0 miCalm0.02 inScattered Clouds
8:15 PM78.1 °F76.1 °F94 %29.95 in10.0 miEast (100°)4.6 mphClear
8:35 PM81.7 °F74.3 °F78 %29.96 in10.0 miEast (100°)8.1 mphClear
8:55 PM81.3 °F74.3 °F79 %29.96 in10.0 miESE (110°)8.1 mphClear
9:15 PM81.5 °F75.0 °F81 %29.97 in7.0 miEast (100°)8.1 mphClear
9:35 PM81.1 °F74.5 °F80 %29.97 in10.0 miESE (110°)6.9 mphClear
9:55 PM80.8 °F73.6 °F79 %29.98 in10.0 miESE (110°)8.1 mphClear
10:15 PM80.2 °F73.8 °F81 %29.98 in10.0 miEast (100°)5.8 mphClear
10:35 PM79.7 °F74.3 °F83 %29.98 in10.0 miEast (80°)6.9 mphClear
10:55 PM79.3 °F74.3 °F84 %29.98 in10.0 miEast (80°)5.8 mphClear
11:15 PM79.0 °F74.1 °F85 %29.98 in10.0 miEast (80°)5.8 mphClear
11:35 PM78.4 °F74.1 °F87 %29.99 in10.0 miEast (80°)6.9 mphClear
11:55 PM78.6 °F74.5 °F87 %29.99 in10.0 miENE (70°)5.8 mphClear
Hourly data recorded from KUXL, located miles away from Sulphur, Louisiana







STORIES FROM OUR PARTNERS